Regional Weather Roundup
Issued by NWS Kansas City/Pleasant Hill, MO

Home | Current Version | Previous Version | Graphics & Text | Print | Product List | Glossary Off
Versions: 1 2 3 4 5 6 7 8 9 10 11 12 13 14 15 16 17 18 19 20 21 22 23 24 25 26 27 28 29 30 31 32 33 34 35 36 37 38 39 40 41 42 43 44 45 46 47 48 49 50

000
ASUS43 KEAX 291011
RWREAX

WEATHER ROUNDUP FOR EASTERN KANSAS AND NORTHWEST MISSOURI
NATIONAL WEATHER SERVICE KANSAS CITY/PLEASANT HILL MO
500 AM CDT FRI AUG 29 2014

KSZ040-057-103>105-MOZ028-029-037-043-291100-
...KANSAS CITY METROPOLITAN AREA...

CITY           SKY/WX    TMP DP  RH WIND       PRES   REMARKS
K.C. INTL      PTCLDY    69  64  84 S9        29.85S
K.C. DOWNTOWN  CLEAR     76  63  64 SW8       29.84S
LEES SUMMIT    CLEAR     73  63  70 S7        29.86F
OLATHE - IXD   CLEAR     70  64  81 S7        29.87R
OLATHE - OJC   PTCLDY    70  63  78 S6        29.86R
LAWRENCE       CLEAR     71  63  75 CALM      29.86R

$$

MOZ001>008-011>017-020>025-030>033-038>040-044>046-053-054-291100-
...NORTHERN AND CENTRAL MISSOURI...

CITY           SKY/WX    TMP DP  RH WIND       PRES   REMARKS
ST. JOSEPH     MOCLDY    71  65  81 S5        29.83S
MOSBY          SUNNY     70  64  83 E5        29.85F
WHITEMAN AFB   CLEAR     70  64  79 S7        29.88S
CLINTON        CLEAR     73  64  73 S7        29.89R
SEDALIA        CLEAR     71  62  73 S8        29.90S
WARSAW         NOT AVBL
MARSHALL       CLEAR     72  66  83 SE6       29.90S
CHILLICOTHE      N/A     73  68  84 SE3       29.87F
MOBERLY        CLEAR     72  66  83 SE6       29.91S
KIRKSVILLE     CLEAR     70  68  93 S6        29.90S FOG

$$

MOZ041-047>049-056>058-063>065-088>090-097-291100-
...EASTERN AND SOUTHERN MISSOURI...

CITY           SKY/WX    TMP DP  RH WIND       PRES   REMARKS
ST. LOUIS INTL PTCLDY    76  70  82 CALM      29.96R
SPIRIT OF STL  PTCLDY    70  69  97 CALM      29.94S FOG
COLUMBIA         N/A     71  65  81 SE9       29.92S
JEFFERSON CITY CLEAR     72  65  78 E6        29.91S
MEXICO         CLEAR    N/A N/A N/A S5        29.93S HAZE
HANNIBAL       PTCLDY    73  70  88 SE7       29.93S
ROLLA          CLEAR     70  64  81 S7        29.95R
LEBANON        CLEAR     70  61  73 SE5       29.95F
OSAGE BEACH    CLEAR     70  63  78 SE3       29.92F
SPRINGFIELD    CLEAR     71  62  73 SE10      29.92F
BRANSON        CLEAR     73  64  73 CALM      29.95S
NEVADA         CLEAR     68  64  88 S5        29.90S
JOPLIN         PTCLDY    74  64  71 SW7       29.90R
WEST PLAINS    CLEAR     66  61  84 CALM      29.98S

$$

IAZ060-094-KSZ022-034>040-054-083-096-NEZ052-066-093-291100-
...KANSAS...SOUTHEAST NEBRASKA AND IOWA...

CITY           SKY/WX    TMP DP  RH WIND       PRES   REMARKS
TOPEKA         CLOUDY    75  66  73 S5        29.85R
MANHATTAN      MOCLDY    69  63  81 CALM      29.83S
EMPORIA        MOCLDY    70  63  78 CALM      29.86S
CHANUTE        CLEAR     70  63  78 SE6       29.86R
WICHITA        CLOUDY    68  65  90 W7        29.85R
OMAHA          CLOUDY    72  69  90 S8        29.80S
LINCOLN        CLOUDY    72  67  84 SW6       29.80F
FALLS CITY     MOCLDY    73  67  81 S3        29.81R
DES MOINES     MOCLDY    69  65  86 SE8       29.85F

$$




USA.gov is the U.S. government's official web portal to all federal, state and local government web resources and services.